Time,TemperatureF,DewpointF,PressureIn,WindDirection,WindDirectionDegrees,WindSpeedMPH,WindSpeedGustMPH,Humidity,HourlyPrecipIn,Conditions,Clouds,dailyrainin,SoftwareType,DateUTC
2013-07-15 00:01:00,94.0,60.0,29.75,East,80,7.0,9.0,32,0.00,,,0.00,,2013-07-15 07:01:00,
2013-07-15 00:11:00,94.0,60.0,29.75,ENE,72,9.0,9.0,32,0.00,,,0.00,,2013-07-15 07:11:00,
2013-07-15 00:21:00,94.0,60.0,29.75,ENE,76,7.0,10.0,32,0.00,,,0.00,,2013-07-15 07:21:00,
2013-07-15 00:32:00,94.0,60.0,29.75,ESE,104,9.0,9.0,32,0.00,,,0.00,,2013-07-15 07:32:00,
2013-07-15 00:43:00,93.0,60.0,29.75,SE,131,5.0,5.0,33,0.00,,,0.00,,2013-07-15 07:43:00,
2013-07-15 00:53:00,93.0,60.0,29.75,ESE,104,6.0,6.0,34,0.00,,,0.00,,2013-07-15 07:53:00,
2013-07-15 01:01:00,92.0,60.0,29.75,ESE,122,7.0,7.0,35,0.00,,,0.00,,2013-07-15 08:01:00,
2013-07-15 01:11:00,92.0,60.0,29.75,East,98,7.0,9.0,35,0.00,,,0.00,,2013-07-15 08:11:00,
2013-07-15 01:32:00,91.0,61.0,29.74,East,80,7.0,9.0,37,0.00,,,0.00,,2013-07-15 08:32:00,
2013-07-15 01:43:00,91.0,61.0,29.74,ESE,107,6.0,6.0,37,0.00,,,0.00,,2013-07-15 08:43:00,
2013-07-15 01:53:00,91.0,61.0,29.74,East,83,6.0,7.0,37,0.00,,,0.00,,2013-07-15 08:53:00,
2013-07-15 02:01:00,91.0,62.0,29.74,ENE,65,8.0,8.0,38,0.00,,,0.00,,2013-07-15 09:01:00,
2013-07-15 02:11:00,91.0,62.0,29.74,NE,56,7.0,9.0,38,0.00,,,0.00,,2013-07-15 09:11:00,
2013-07-15 02:22:00,91.0,62.0,29.74,ENE,76,8.0,8.0,38,0.00,,,0.00,,2013-07-15 09:22:00,
2013-07-15 02:32:00,91.0,61.0,29.73,ESE,117,7.0,7.0,37,0.00,,,0.00,,2013-07-15 09:32:00,
2013-07-15 02:42:00,91.0,61.0,29.74,East,91,4.0,5.0,37,0.00,,,0.00,,2013-07-15 09:42:00,
2013-07-15 02:52:00,91.0,62.0,29.74,ENE,70,7.0,7.0,38,0.00,,,0.00,,2013-07-15 09:52:00,
2013-07-15 03:01:00,91.0,61.0,29.74,East,97,5.0,6.0,37,0.00,,,0.00,,2013-07-15 10:01:00,
2013-07-15 03:11:00,90.0,61.0,29.73,East,90,4.0,4.0,38,0.00,,,0.00,,2013-07-15 10:11:00,
2013-07-15 03:21:00,91.0,60.0,29.73,ENE,68,2.0,3.0,36,0.00,,,0.00,,2013-07-15 10:21:00,
2013-07-15 03:32:00,91.0,59.0,29.74,ESE,114,2.0,2.0,35,0.00,,,0.00,,2013-07-15 10:32:00,
2013-07-15 03:42:00,91.0,60.0,29.74,ENE,72,0.0,0.0,36,0.00,,,0.00,,2013-07-15 10:42:00,
2013-07-15 03:52:00,91.0,59.0,29.74,East,86,4.0,4.0,35,0.00,,,0.00,,2013-07-15 10:52:00,
2013-07-15 04:01:00,92.0,59.0,29.73,NE,51,1.0,0.0,33,0.00,,,0.00,,2013-07-15 11:01:00,
2013-07-15 04:11:00,91.0,59.0,29.73,SE,128,3.0,3.0,34,0.00,,,0.00,,2013-07-15 11:11:00,
2013-07-15 04:32:00,91.0,59.0,29.73,ESE,115,5.0,5.0,34,0.00,,,0.00,,2013-07-15 11:32:00,
2013-07-15 04:42:00,91.0,58.0,29.73,East,94,2.0,0.0,33,0.00,,,0.00,,2013-07-15 11:42:00,
2013-07-15 05:01:00,91.0,57.0,29.73,SE,143,4.0,4.0,32,0.00,,,0.00,,2013-07-15 12:01:00,
2013-07-15 05:32:00,90.0,59.0,29.74,East,98,0.0,0.0,35,0.00,,,0.00,,2013-07-15 12:32:00,
2013-07-15 05:42:00,89.0,59.0,29.74,East,98,0.0,0.0,36,0.00,,,0.00,,2013-07-15 12:42:00,
2013-07-15 05:52:00,89.0,59.0,29.74,NNW,345,3.0,3.0,36,0.00,,,0.00,,2013-07-15 12:52:00,
2013-07-15 06:01:00,89.0,59.0,29.74,NE,34,0.0,0.0,37,0.00,,,0.00,,2013-07-15 13:01:00,
2013-07-15 06:11:00,90.0,60.0,29.74,NE,55,0.0,0.0,37,0.00,,,0.00,,2013-07-15 13:11:00,
2013-07-15 06:32:00,90.0,60.0,29.75,North,8,0.0,0.0,37,0.00,,,0.00,,2013-07-15 13:32:00,
2013-07-15 06:43:00,91.0,61.0,29.75,NNW,340,2.0,2.0,37,0.00,,,0.00,,2013-07-15 13:43:00,
2013-07-15 06:53:00,91.0,61.0,29.75,WNW,300,2.0,3.0,37,0.00,,,0.00,,2013-07-15 13:53:00,
2013-07-15 07:02:00,91.0,61.0,29.75,NNW,339,2.0,2.0,37,0.00,,,0.00,,2013-07-15 14:02:00,
2013-07-15 09:32:00,99.0,57.0,29.77,ESE,107,6.0,6.0,25,0.00,,,0.00,,2013-07-15 16:32:00,
2013-07-15 09:42:00,99.0,57.0,29.77,SE,127,8.0,8.0,25,0.00,,,0.00,,2013-07-15 16:42:00,
2013-07-15 10:43:00,102.0,56.0,29.76,West,259,6.0,6.0,22,0.00,,,0.00,,2013-07-15 17:43:00,
2013-07-15 10:52:00,101.0,55.0,29.76,NNE,30,7.0,7.0,22,0.00,,,0.00,,2013-07-15 17:52:00,
2013-07-15 11:01:00,102.0,55.0,29.76,ENE,77,6.0,12.0,21,0.00,,,0.00,,2013-07-15 18:01:00,
2013-07-15 11:11:00,102.0,55.0,29.76,ENE,77,6.0,12.0,21,0.00,,,0.00,,2013-07-15 18:11:00,
2013-07-15 11:44:00,103.0,54.0,29.75,NE,35,5.0,0.0,20,0.00,,,0.00,,2013-07-15 18:44:00,
2013-07-15 20:01:00,102.0,47.0,29.65,East,94,13.0,13.0,16,0.00,,,0.00,,2013-07-16 03:01:00,
2013-07-15 20:11:00,101.0,48.0,29.66,ESE,110,15.0,15.0,17,0.00,,,0.00,,2013-07-16 03:11:00,
2013-07-15 20:43:00,100.0,50.0,29.67,East,97,12.0,12.0,19,0.00,,,0.00,,2013-07-16 03:43:00,
2013-07-15 21:01:00,100.0,52.0,29.67,NNE,32,12.0,12.0,20,0.00,,,0.00,,2013-07-16 04:01:00,
2013-07-15 21:12:00,100.0,52.0,29.67,NNE,32,12.0,12.0,20,0.00,,,0.00,,2013-07-16 04:12:00,
2013-07-15 21:43:00,98.0,54.0,29.71,ESE,105,5.0,5.0,23,0.00,,,0.00,,2013-07-16 04:43:00,
2013-07-15 21:53:00,98.0,55.0,29.71,ESE,113,6.0,9.0,24,0.00,,,0.00,,2013-07-16 04:53:00,
2013-07-15 22:01:00,97.0,56.0,29.72,SSW,198,7.0,7.0,26,0.00,,,0.00,,2013-07-16 05:01:00,
2013-07-15 22:11:00,97.0,57.0,29.72,SSE,156,7.0,7.0,27,0.00,,,0.00,,2013-07-16 05:11:00,
2013-07-15 22:21:00,96.0,58.0,29.72,ESE,105,8.0,8.0,28,0.00,,,0.00,,2013-07-16 05:21:00,
2013-07-15 22:32:00,96.0,59.0,29.72,ENE,60,7.0,9.0,29,0.00,,,0.00,,2013-07-16 05:32:00,
2013-07-15 22:52:00,95.0,59.0,29.72,East,86,8.0,9.0,30,0.00,,,0.00,,2013-07-16 05:52:00,
2013-07-15 23:01:00,95.0,60.0,29.73,ESE,114,9.0,9.0,31,0.00,,,0.00,,2013-07-16 06:01:00,
2013-07-15 23:11:00,94.0,59.0,29.73,ENE,62,7.0,9.0,31,0.00,,,0.00,,2013-07-16 06:11:00,
2013-07-15 23:52:00,93.0,59.0,29.74,ENE,58,8.0,8.0,32,0.00,,,0.00,,2013-07-16 06:52:00,